{"data":{"norad_id":60091,"epoch":"2026-05-25T01:58:06.405312Z","epoch_age_seconds":64593,"freshness":"FRESH","line1":"1 60091U 24117A   26145.08201858  .00004528  00000+0  16492-3 0  9994","line2":"2 60091  53.1588  42.2062 0000945  92.8994 267.2115 15.30198520108583","mean_motion":15.3019852,"eccentricity":9.45e-5,"inclination_deg":53.1588,"raan_deg":42.2062,"arg_perigee_deg":92.8994,"mean_anomaly_deg":267.2115,"bstar":0.00016492,"rev_number":10858,"period_min":94.105436724641,"perigee_km":474.57184624796,"apogee_km":475.86713062427,"semimajor_km":6853.3564884361,"source":"CELESTRAK","updated_at":"2026-05-25T13:38:19.159582Z"}}